Location: York
(31.8935°S, 116.7682°E)
Time: 06:10:31
(UTC+08:00)

Envisat - Pass Details

Date: 13 December 2021
Orbit: 764 x 766 km, 98.2° (Epoch: 16 January)

Event Time Altitude Azimuth Distance (km) Brightness Sun altitude
Rises 03:19:11 0° 53° (NE) 3,224 6.3 -18.3°
Reaches altitude 10° 03:22:08 10° 71° (ENE) 2,307 5.8 -17.9°
Maximum altitude 03:25:31 18° 113° (ESE) 1,816 5.9 -17.3°
Drops below altitude 10° 03:28:55 10° 154° (SSE) 2,326 6.6 -16.8°
Sets 03:31:54 0° 172° (S) 3,261 7.1 -16.3°
